This demonstration page uses our WeatherBlox Daily Observations layout. Learn more.

Left ArrowRight Arrow

36.19886, -115.1175

Hourly Observations for February 9, 2021

Temp ( °F °C ) Dew Point ( °F °C ) Humidity (%) Winds ( mph kmh ) Pressure ( in mb ) Visibility ( mi km ) Precip ( " mm )
12:53 am 00:53 Clear 53 11.7 23 -5 31 31 NNW 5 7 29.91 1013 10 16 N/A
1:53 am 01:53 Clear 54 12.2 22 -5.6 29 29 NE 7 11 29.90 1012 10 16 N/A
2:53 am 02:53 Clear 51 10.6 22 -5.6 32 32 N N/A 29.89 1012 10 16 N/A
3:53 am 03:53 Clear 50 10 23 -5 35 35 N N/A 29.88 1012 10 16 N/A
4:53 am 04:53 Clear 51 10.6 23 -5 33 33 NNW 3 6 29.89 1012 10 16 N/A
5:53 am 05:53 Clear 50 10 23 -5 35 35 N 3 6 29.89 1012 10 16 N/A
6:53 am 06:53 Sunny 51 10.6 23 -5 33 33 N N/A 29.92 1013 10 16 N/A
7:53 am 07:53 Sunny 54 12.2 23 -5 30 30 NNE 3 6 29.93 1013 10 16 N/A
8:53 am 08:53 Mostly Sunny 55 12.8 24 -4.4 30 30 NNW 3 6 29.95 1014 10 16 N/A
9:53 am 09:53 Sunny 58 14.4 24 -4.4 27 27 N N/A 29.96 1014 10 16 N/A
10:53 am 10:53 Sunny 60 15.6 24 -4.4 25 25 ENE 5 7 29.95 1014 10 16 N/A
11:53 am 11:53 Mostly Sunny 62 16.7 24 -4.4 23 23 NE 6 9 29.93 1014 10 16 N/A
12:53 pm 12:53 Cloudy 62 16.7 23 -5 22 22 N N/A 29.92 1013 10 16 N/A
1:53 pm 13:53 Sunny 62 16.7 23 -5 22 22 E 5 7 29.90 1012 10 16 N/A
2:53 pm 14:53 Sunny 63 17.2 23 -5 22 22 SE 6 9 29.89 1012 10 16 N/A
3:53 pm 15:53 Sunny 63 17.2 22 -5.6 21 21 ENE 3 6 29.89 1012 10 16 N/A
4:53 pm 16:53 Sunny 63 17.2 22 -5.6 21 21 NE 7 11 29.88 1012 10 16 N/A
5:53 pm 17:53 Partly Cloudy 61 16.1 21 -6.1 21 21 E 5 7 29.89 1012 10 16 N/A
6:53 pm 18:53 Partly Cloudy 61 16.1 21 -6.1 21 21 N N/A 29.91 1013 10 16 N/A
7:53 pm 19:53 Mostly Cloudy 59 15 22 -5.6 24 24 N N/A 29.92 1013 10 16 N/A
8:53 pm 20:53 Cloudy 57 13.9 25 -3.9 29 29 WSW 3 6 29.93 1014 10 16 N/A
9:53 pm 21:53 Mostly Cloudy 57 13.9 25 -3.9 29 29 WNW 5 7 29.94 1014 10 16 N/A
10:53 pm 22:53 Cloudy 57 13.9 26 -3.3 30 30 SSW 3 6 29.94 1014 10 16 N/A
11:53 pm 23:53 Cloudy 56 13.3 26 -3.3 32 32 SSW 6 9 29.93 1013 10 16 N/A

Powered by AerisWeather